User: anonymous   Login
Location: Caltech
(34.1382°N, 118.1253°W)
Time: 00:42:19
(UTC-07:00)
Language:

Hamsat - Orbit

View from above orbital plane
View from above orbital plane
View from above satellite
View from above satellite

Ground track
Ground track

The orbit data is extracted from the following two-line orbital elements,

1 28650U 05017B   18147.87171941  .00000215  00000-0  28513-4 0  9994
2 28650  97.6974 116.5327 0024944  71.2219 289.1701 14.88929843707452
Epoch (UTC): 27 May 2018 20:55:16
Eccentricity: 0.0024944
inclination: 97.6974°
perigee height: 584 km
apogee height: 618 km
right ascension of ascending node: 116.5327°
argument of perigee: 71.2219°
revolutions per day: 14.88929843
mean anomaly at epoch: 289.1701°
orbit number at epoch: 70745

The dashed part of the orbit path shows where the satellite is in the earth's shadow,  

DLR